Погода в Андрейково

Россия / Смоленская область     55°14′09″N   34°15′25″E
темп.,
°C
ветер,
м/с
пор.,
м/с
влажн.,
%
обл.,
%
осадки,
мм/ч
давл.,
гПа
погр.,
м
19 сентября, вс
вс1900:00+6в71467100 0.1 1019940
03:00+5в71582100 1.2 1018782
06:00+4в81692100 4.6 1017702
09:00+4в91893100 8.4 1016763
12:00+4в81895100 6.8 1016841
15:00+5в81694100 10.4 1016888
18:00+5в71595100 4.8 1015871
21:00+5в81595100 10.7 1015936
20 сентября, пн
пн2000:00+5всв71495100 4.4 10141001
03:00+5всв81595100 7.1 1013964
06:00+5всв81495100 3.2 1012968
09:00+4всв81496100 4.4 1013885
12:00+5всв71495100 0.4 1013884
15:00+5всв71394100 0.4 1013816
18:00+5всв71495100 0.6 1013782
21:00+5всв71395100 3.8 1013800
21 сентября, вт
вт2100:00+5всв61396100 3.6 1012743
03:00+5всв61296100 5.7 1011712
06:00+5всв61197100 1.4 1010649
09:00+6всв61197100 3.4 1010623
12:00+6всв51097100 0.7 1010598
15:00+6св5997100 2.1 1010469
18:00+6св51098100 2.8 1010509
21:00+7св3799100 5.1 1010387
22 сентября, ср
ср2200:00+7в4798100 2.3 1010343
03:00+6в4798100 4.4 1011434
06:00+6в4797100 0.4 1012471
09:00+6в379199 0.5 1013548
12:00+7вюв3688100 0.2 1014881
15:00+6вюв3593100 0.8 1015929
18:00+5вюв3697100 0.1 1016450
21:00+6вюв3798100 0.2 1016420
23 сентября, чт
чт2300:00+6вюв2598100 0.1 1017294
03:00+6вюв3698100 0.1 1016334
06:00+5вюв2597100 0.0 1016246
09:00+6вюв2492100 0.0 1016281
12:00+7вюв2489100 0.1 1015349
15:00+6юв2496100 1.4 1014214
18:00+6юв2495100 0.2 1014223
21:00+6ююв2496100 0.2 1013161